Year,Month,Day,Hour,Minute,Value (Times are PST for temperature in C)
2024,01,13,00,00,-8.70
2024,01,13,00,01,-8.70
2024,01,13,00,02,-8.70
2024,01,13,00,03,-8.70
2024,01,13,00,04,-8.70
2024,01,13,00,05,-8.70
2024,01,13,00,06,-8.70
2024,01,13,00,07,-8.70
2024,01,13,00,08,-8.80
2024,01,13,00,09,-8.80
2024,01,13,00,10,-8.80
2024,01,13,00,11,-8.80
2024,01,13,00,12,-8.80
2024,01,13,00,13,-8.80
2024,01,13,00,14,-8.80
2024,01,13,00,15,-8.80
2024,01,13,00,16,-8.80
2024,01,13,00,17,-8.80
2024,01,13,00,18,-8.80
2024,01,13,00,19,-8.80
2024,01,13,00,20,-8.80
2024,01,13,00,21,-8.80
2024,01,13,00,22,-8.80
2024,01,13,00,23,-8.80
2024,01,13,00,24,-8.80
2024,01,13,00,25,-8.80
2024,01,13,00,26,-8.80
2024,01,13,00,27,-8.70
2024,01,13,00,28,-8.70
2024,01,13,00,29,-8.70
2024,01,13,00,30,-8.70
2024,01,13,00,31,-8.70
2024,01,13,00,32,-8.70
2024,01,13,00,33,-8.70
2024,01,13,00,34,-8.70
2024,01,13,00,35,-8.70
2024,01,13,00,36,-8.70
2024,01,13,00,37,-8.70
2024,01,13,00,38,-8.70
2024,01,13,00,39,-8.70
2024,01,13,00,40,-8.70
2024,01,13,00,41,-8.70
2024,01,13,00,42,-8.60
2024,01,13,00,43,-8.60
2024,01,13,00,44,-8.60
2024,01,13,00,45,-8.60
2024,01,13,00,46,-8.60
2024,01,13,00,47,-8.60
2024,01,13,00,48,-8.60
2024,01,13,00,49,-8.60
2024,01,13,00,50,-8.60
2024,01,13,00,51,-8.60
2024,01,13,00,52,-8.60
2024,01,13,00,53,-8.60
2024,01,13,00,54,-8.60
2024,01,13,00,55,-8.60
2024,01,13,00,56,-8.60
2024,01,13,00,57,-8.60
2024,01,13,00,58,-8.60
2024,01,13,00,59,-8.60
2024,01,13,01,00,-8.60
2024,01,13,01,01,-8.60
2024,01,13,01,02,-8.60
2024,01,13,01,03,-8.60
2024,01,13,01,04,-8.60
2024,01,13,01,05,-8.60
2024,01,13,01,06,-8.60
2024,01,13,01,07,-8.60
2024,01,13,01,08,-8.60
2024,01,13,01,09,-8.60
2024,01,13,01,10,-8.60
2024,01,13,01,11,-8.60
2024,01,13,01,12,-8.60
2024,01,13,01,13,-8.60
2024,01,13,01,14,-8.60
2024,01,13,01,15,-8.60
2024,01,13,01,16,-8.60
2024,01,13,01,17,-8.60
2024,01,13,01,18,-8.50
2024,01,13,01,19,-8.50
2024,01,13,01,20,-8.50
2024,01,13,01,21,-8.50
2024,01,13,01,22,-8.50
2024,01,13,01,23,-8.50
2024,01,13,01,24,-8.40
2024,01,13,01,25,-8.40
2024,01,13,01,26,-8.40
2024,01,13,01,27,-8.40
2024,01,13,01,28,-8.40
2024,01,13,01,29,-8.40
2024,01,13,01,30,-8.30
2024,01,13,01,31,-8.30
2024,01,13,01,32,-8.30
2024,01,13,01,33,-8.30
2024,01,13,01,34,-8.30
2024,01,13,01,35,-8.30
2024,01,13,01,36,-8.20
2024,01,13,01,37,-8.20
2024,01,13,01,38,-8.20
2024,01,13,01,39,-8.20
2024,01,13,01,40,-8.20
2024,01,13,01,41,-8.20
2024,01,13,01,42,-8.20
2024,01,13,01,43,-8.30
2024,01,13,01,44,-8.30
2024,01,13,01,45,-8.30
2024,01,13,01,46,-8.30
2024,01,13,01,47,-8.30
2024,01,13,01,48,-8.30
2024,01,13,01,49,-8.30
2024,01,13,01,50,-8.30
2024,01,13,01,51,-8.30
2024,01,13,01,52,-8.30
2024,01,13,01,53,-8.30
2024,01,13,01,54,-8.40
2024,01,13,01,55,-8.40
2024,01,13,01,56,-8.40
2024,01,13,01,57,-8.40
2024,01,13,01,58,-8.40
2024,01,13,01,59,-8.40
2024,01,13,02,00,-8.40
2024,01,13,02,01,-8.40
2024,01,13,02,02,-8.40
2024,01,13,02,03,-8.40
2024,01,13,02,04,-8.40
2024,01,13,02,05,-8.40
2024,01,13,02,06,-8.40
2024,01,13,02,07,-8.40
2024,01,13,02,08,-8.40
2024,01,13,02,09,-8.30
2024,01,13,02,10,-8.20
2024,01,13,02,11,-8.20
2024,01,13,02,12,-8.20
2024,01,13,02,13,-8.20
2024,01,13,02,14,-8.10
2024,01,13,02,15,-8.10
2024,01,13,02,16,-8.10
2024,01,13,02,17,-8.10
2024,01,13,02,18,-8.00
2024,01,13,02,19,-7.90
2024,01,13,02,20,-7.90
2024,01,13,02,21,-7.90
2024,01,13,02,22,-7.90
2024,01,13,02,23,-7.90
2024,01,13,02,24,-7.90
2024,01,13,02,25,-7.90
2024,01,13,02,26,-7.90
2024,01,13,02,27,-7.90
2024,01,13,02,28,-7.90
2024,01,13,02,29,-7.80
2024,01,13,02,30,-7.80
2024,01,13,02,31,-7.80
2024,01,13,02,32,-7.80
2024,01,13,02,33,-7.80
2024,01,13,02,34,-7.80
2024,01,13,02,35,-7.70
2024,01,13,02,36,-7.70
2024,01,13,02,37,-7.70
2024,01,13,02,38,-7.70
2024,01,13,02,39,-7.60
2024,01,13,02,40,-7.60
2024,01,13,02,41,-7.60
2024,01,13,02,42,-7.60
2024,01,13,02,43,-7.60
2024,01,13,02,44,-7.60
2024,01,13,02,45,-7.60
2024,01,13,02,46,-7.60
2024,01,13,02,47,-7.60
2024,01,13,02,48,-7.60
2024,01,13,02,49,-7.60
2024,01,13,02,50,-7.60
2024,01,13,02,51,-7.60
2024,01,13,02,52,-7.60
2024,01,13,02,53,-7.60
2024,01,13,02,54,-7.60
2024,01,13,02,55,-7.60
2024,01,13,02,56,-7.60
2024,01,13,02,57,-7.60
2024,01,13,02,58,-7.60
2024,01,13,02,59,-7.60
2024,01,13,03,00,-7.60
2024,01,13,03,01,-7.60
2024,01,13,03,02,-7.60
2024,01,13,03,03,-7.60
2024,01,13,03,04,-7.60
2024,01,13,03,05,-7.60
2024,01,13,03,06,-7.60
2024,01,13,03,07,-7.60
2024,01,13,03,08,-7.60
2024,01,13,03,09,-7.60
2024,01,13,03,10,-7.60
2024,01,13,03,11,-7.60
2024,01,13,03,12,-7.60
2024,01,13,03,13,-7.60
2024,01,13,03,14,-7.60
2024,01,13,03,15,-7.60
2024,01,13,03,16,-7.60
2024,01,13,03,17,-7.60
2024,01,13,03,18,-7.60
2024,01,13,03,19,-7.60
2024,01,13,03,20,-7.60
2024,01,13,03,21,-7.60
2024,01,13,03,22,-7.60
2024,01,13,03,23,-7.50
2024,01,13,03,24,-7.40
2024,01,13,03,25,-7.40
2024,01,13,03,26,-7.40
2024,01,13,03,27,-7.40
2024,01,13,03,28,-7.40
2024,01,13,03,29,-7.30
2024,01,13,03,30,-7.30
2024,01,13,03,31,-7.30
2024,01,13,03,32,-7.30
2024,01,13,03,33,-7.30
2024,01,13,03,34,-7.30
2024,01,13,03,35,-7.30
2024,01,13,03,36,-7.30
2024,01,13,03,37,-7.30
2024,01,13,03,38,-7.30
2024,01,13,03,39,-7.30
2024,01,13,03,40,-7.30
2024,01,13,03,41,-7.30
2024,01,13,03,42,-7.30
2024,01,13,03,43,-7.40
2024,01,13,03,44,-7.40
2024,01,13,03,45,-7.30
2024,01,13,03,46,-7.30
2024,01,13,03,47,-7.30
2024,01,13,03,48,-7.30
2024,01,13,03,49,-7.30
2024,01,13,03,50,-7.30
2024,01,13,03,51,-7.30
2024,01,13,03,52,-7.40
2024,01,13,03,53,-7.40
2024,01,13,03,54,-7.40
2024,01,13,03,55,-7.40
2024,01,13,03,56,-7.40
2024,01,13,03,57,-7.40
2024,01,13,03,58,-7.50
2024,01,13,03,59,-7.60
2024,01,13,04,00,-7.60
2024,01,13,04,01,-7.60
2024,01,13,04,02,-7.60
2024,01,13,04,03,-7.60
2024,01,13,04,04,-7.60
2024,01,13,04,05,-7.60
2024,01,13,04,06,-7.60
2024,01,13,04,07,-7.60
2024,01,13,04,08,-7.60
2024,01,13,04,09,-7.60
2024,01,13,04,10,-7.60
2024,01,13,04,11,-7.60
2024,01,13,04,12,-7.60
2024,01,13,04,13,-7.60
2024,01,13,04,14,-7.60
2024,01,13,04,15,-7.60
2024,01,13,04,16,-7.60
2024,01,13,04,17,-7.60
2024,01,13,04,18,-7.60
2024,01,13,04,19,-7.60
2024,01,13,04,20,-7.60
2024,01,13,04,21,-7.60
2024,01,13,04,22,-7.60
2024,01,13,04,23,-7.60
2024,01,13,04,24,-7.60
2024,01,13,04,25,-7.60
2024,01,13,04,26,-7.60
2024,01,13,04,27,-7.60
2024,01,13,04,28,-7.60
2024,01,13,04,29,-7.60
2024,01,13,04,30,-7.60
2024,01,13,04,31,-7.60
2024,01,13,04,32,-7.60
2024,01,13,04,33,-7.60
2024,01,13,04,34,-7.60
2024,01,13,04,35,-7.60
2024,01,13,04,36,-7.60
2024,01,13,04,37,-7.60
2024,01,13,04,38,-7.60
2024,01,13,04,39,-7.60
2024,01,13,04,40,-7.60
2024,01,13,04,41,-7.60
2024,01,13,04,42,-7.60
2024,01,13,04,43,-7.50
2024,01,13,04,44,-7.40
2024,01,13,04,45,-7.40
2024,01,13,04,46,-7.40
2024,01,13,04,47,-7.40
2024,01,13,04,48,-7.40
2024,01,13,04,49,-7.40
2024,01,13,04,50,-7.40
2024,01,13,04,51,-7.40
2024,01,13,04,52,-7.40
2024,01,13,04,53,-7.40
2024,01,13,04,54,-7.40
2024,01,13,04,55,-7.50
2024,01,13,04,56,-7.60
2024,01,13,04,57,-7.60
2024,01,13,04,58,-7.60
2024,01,13,04,59,-7.60
2024,01,13,05,00,-7.60
2024,01,13,05,01,-7.60
2024,01,13,05,02,-7.60
2024,01,13,05,03,-7.60
2024,01,13,05,04,-7.60
2024,01,13,05,05,-7.60
2024,01,13,05,06,-7.60
2024,01,13,05,07,-7.60
2024,01,13,05,08,-7.60
2024,01,13,05,09,-7.60
2024,01,13,05,10,-7.60
2024,01,13,05,11,-7.60
2024,01,13,05,12,-7.60
2024,01,13,05,13,-7.60
2024,01,13,05,14,-7.60
2024,01,13,05,15,-7.60
2024,01,13,05,16,-7.60
2024,01,13,05,17,-7.60
2024,01,13,05,18,-7.60
2024,01,13,05,19,-7.50
2024,01,13,05,20,-7.40
2024,01,13,05,21,-7.40
2024,01,13,05,22,-7.40
2024,01,13,05,23,-7.40
2024,01,13,05,24,-7.40
2024,01,13,05,25,-7.40
2024,01,13,05,26,-7.40
2024,01,13,05,27,-7.40
2024,01,13,05,28,-7.40
2024,01,13,05,29,-7.30
2024,01,13,05,30,-7.30
2024,01,13,05,31,-7.30
2024,01,13,05,32,-7.30
2024,01,13,05,33,-7.30
2024,01,13,05,34,-7.30
2024,01,13,05,35,-7.30
2024,01,13,05,36,-7.30
2024,01,13,05,37,-7.30
2024,01,13,05,38,-7.40
2024,01,13,05,39,-7.40
2024,01,13,05,40,-7.40
2024,01,13,05,41,-7.40
2024,01,13,05,42,-7.40
2024,01,13,05,43,-7.40
2024,01,13,05,44,-7.50
2024,01,13,05,45,-7.60
2024,01,13,05,46,-7.60
2024,01,13,05,47,-7.60
2024,01,13,05,48,-7.60
2024,01,13,05,49,-7.60
2024,01,13,05,50,-7.50
2024,01,13,05,51,-7.40
2024,01,13,05,52,-7.40
2024,01,13,05,53,-7.40
2024,01,13,05,54,-7.40
2024,01,13,05,55,-7.40
2024,01,13,05,56,-7.40
2024,01,13,05,57,-7.40
2024,01,13,05,58,-7.40
2024,01,13,05,59,-7.40
2024,01,13,06,00,-7.40
2024,01,13,06,01,-7.40
2024,01,13,06,02,-7.40
2024,01,13,06,03,-7.40
2024,01,13,06,04,-7.40
2024,01,13,08,53,-7.40
2024,01,13,08,54,-7.40
2024,01,13,08,55,-7.40
2024,01,13,08,56,-7.40
2024,01,13,08,57,-7.40
2024,01,13,08,58,-7.40
2024,01,13,08,59,-7.40
2024,01,13,09,00,-7.40
2024,01,13,09,01,-7.40
2024,01,13,09,02,-7.40
2024,01,13,09,03,-7.40
2024,01,13,09,04,-7.30
2024,01,13,09,05,-7.30
2024,01,13,09,06,-7.30
2024,01,13,09,07,-7.30
2024,01,13,09,08,-7.30
2024,01,13,09,09,-7.30
2024,01,13,09,10,-7.30
2024,01,13,09,11,-7.30
2024,01,13,09,12,-7.30
2024,01,13,09,13,-7.30
2024,01,13,09,14,-7.30
2024,01,13,09,15,-7.30
2024,01,13,09,16,-7.30
2024,01,13,09,17,-7.30
2024,01,13,09,18,-7.30
2024,01,13,09,19,-7.30
2024,01,13,09,20,-7.40
2024,01,13,09,21,-7.40
2024,01,13,09,22,-7.40
2024,01,13,09,23,-7.40
2024,01,13,09,24,-7.40
2024,01,13,09,25,-7.40
2024,01,13,09,26,-7.40
2024,01,13,09,27,-7.40
2024,01,13,09,28,-7.40
2024,01,13,09,29,-7.40
2024,01,13,09,30,-7.40
2024,01,13,09,31,-7.30
2024,01,13,09,32,-7.30
2024,01,13,09,33,-7.30
2024,01,13,09,34,-7.30
2024,01,13,09,35,-7.30
2024,01,13,09,36,-7.30
2024,01,13,09,37,-7.20
2024,01,13,09,38,-7.20
2024,01,13,09,39,-7.20
2024,01,13,09,40,-7.20
2024,01,13,09,41,-7.20
2024,01,13,09,42,-7.20
2024,01,13,09,43,-7.20
2024,01,13,09,44,-7.10
2024,01,13,09,45,-7.10
2024,01,13,09,46,-7.10
2024,01,13,09,47,-7.10
2024,01,13,09,48,-7.10
2024,01,13,09,49,-7.10
2024,01,13,09,50,-7.10
2024,01,13,09,51,-7.10
2024,01,13,09,52,-7.10
2024,01,13,09,53,-7.00
2024,01,13,09,54,-7.00
2024,01,13,09,55,-7.00
2024,01,13,09,56,-6.90
2024,01,13,09,57,-6.90
2024,01,13,09,58,-6.90
2024,01,13,09,59,-6.90
2024,01,13,10,00,-6.90
2024,01,13,10,01,-6.90
2024,01,13,10,02,-6.90
2024,01,13,10,03,-6.90
2024,01,13,10,04,-6.90
2024,01,13,10,05,-6.90
2024,01,13,10,06,-6.80
2024,01,13,10,07,-6.80
2024,01,13,10,08,-6.80
2024,01,13,10,09,-6.80
2024,01,13,10,10,-6.80
2024,01,13,10,11,-6.80
2024,01,13,10,12,-6.80
2024,01,13,10,13,-6.70
2024,01,13,10,14,-6.70
2024,01,13,10,15,-6.70
2024,01,13,10,16,-6.70
2024,01,13,10,17,-6.70
2024,01,13,10,18,-6.60
2024,01,13,10,19,-6.50
2024,01,13,10,20,-6.50
2024,01,13,10,21,-6.50
2024,01,13,10,22,-6.40
2024,01,13,10,23,-6.40
2024,01,13,10,24,-6.40
2024,01,13,10,25,-6.40
2024,01,13,10,26,-6.40
2024,01,13,10,27,-6.30
2024,01,13,10,28,-6.30
2024,01,13,10,29,-6.30
2024,01,13,10,30,-6.30
2024,01,13,10,31,-6.30
2024,01,13,10,32,-6.30
2024,01,13,10,33,-6.30
2024,01,13,10,34,-6.30
2024,01,13,10,35,-6.30
2024,01,13,10,36,-6.20
2024,01,13,10,37,-6.20
2024,01,13,10,38,-6.20
2024,01,13,10,39,-6.20
2024,01,13,10,40,-6.10
2024,01,13,10,41,-6.10
2024,01,13,10,42,-6.10
2024,01,13,10,43,-6.10
2024,01,13,10,44,-6.10
2024,01,13,10,45,-6.00
2024,01,13,10,46,-5.90
2024,01,13,10,47,-5.90
2024,01,13,10,48,-5.90
2024,01,13,10,49,-5.90
2024,01,13,10,50,-5.80
2024,01,13,10,51,-5.80
2024,01,13,10,52,-5.80
2024,01,13,10,53,-5.80
2024,01,13,10,54,-5.80
2024,01,13,10,55,-5.90
2024,01,13,10,56,-5.90
2024,01,13,10,57,-5.80
2024,01,13,10,58,-5.80
2024,01,13,10,59,-5.80
2024,01,13,11,00,-5.80
2024,01,13,11,01,-5.80
2024,01,13,11,02,-5.80
2024,01,13,11,03,-5.70
2024,01,13,11,04,-5.70
2024,01,13,11,05,-5.60
2024,01,13,11,06,-5.60
2024,01,13,11,07,-5.60
2024,01,13,11,08,-5.50
2024,01,13,11,09,-5.40
2024,01,13,11,10,-5.40
2024,01,13,11,11,-5.40
2024,01,13,11,12,-5.30
2024,01,13,11,13,-5.40
2024,01,13,11,14,-5.40
2024,01,13,11,15,-5.40
2024,01,13,11,16,-5.40
2024,01,13,11,17,-5.40
2024,01,13,11,18,-5.30
2024,01,13,11,19,-5.40
2024,01,13,11,20,-5.40
2024,01,13,11,21,-5.40
2024,01,13,11,22,-5.50
2024,01,13,11,23,-5.50
2024,01,13,11,24,-5.50
2024,01,13,11,25,-5.60
2024,01,13,11,26,-5.60
2024,01,13,11,27,-5.60
2024,01,13,11,28,-5.60
2024,01,13,11,29,-5.60
2024,01,13,11,30,-5.60
2024,01,13,11,31,-5.60
2024,01,13,11,32,-5.50
2024,01,13,11,33,-5.50
2024,01,13,11,34,-5.50
2024,01,13,11,35,-5.50
2024,01,13,11,36,-5.50
2024,01,13,11,37,-5.50
2024,01,13,11,38,-5.60
2024,01,13,11,39,-5.60
2024,01,13,11,40,-5.60
2024,01,13,11,41,-5.50
2024,01,13,11,42,-5.50
2024,01,13,11,43,-5.50
2024,01,13,11,44,-5.40
2024,01,13,11,45,-5.40
2024,01,13,11,46,-5.40
2024,01,13,11,47,-5.30
2024,01,13,11,48,-5.30
2024,01,13,11,49,-5.30
2024,01,13,11,50,-5.30
2024,01,13,11,51,-5.30
2024,01,13,11,52,-5.30
2024,01,13,11,53,-5.30
2024,01,13,11,54,-5.30
2024,01,13,11,55,-5.30
2024,01,13,11,56,-5.30
2024,01,13,11,57,-5.30
2024,01,13,11,58,-5.20
2024,01,13,11,59,-5.20
2024,01,13,12,00,-5.20
2024,01,13,12,01,-5.20
2024,01,13,12,02,-5.20
2024,01,13,12,03,-5.20
2024,01,13,12,04,-5.20
2024,01,13,12,05,-5.10
2024,01,13,12,06,-5.20
2024,01,13,12,07,-5.20
2024,01,13,12,08,-5.20
2024,01,13,12,09,-5.20
2024,01,13,12,10,-5.20
2024,01,13,12,11,-5.30
2024,01,13,12,12,-5.30
2024,01,13,12,13,-5.30
2024,01,13,12,14,-5.30
2024,01,13,12,15,-5.30
2024,01,13,12,16,-5.30
2024,01,13,12,17,-5.30
2024,01,13,12,18,-5.30
2024,01,13,12,19,-5.20
2024,01,13,12,20,-5.20
2024,01,13,12,21,-5.20
2024,01,13,12,22,-5.10
2024,01,13,12,23,-5.10
2024,01,13,12,24,-5.10
2024,01,13,12,25,-5.10
2024,01,13,12,26,-5.10
2024,01,13,12,27,-5.10
2024,01,13,12,28,-5.10
2024,01,13,12,29,-5.10
2024,01,13,12,30,-5.10
2024,01,13,12,31,-5.10
2024,01,13,12,32,-5.10
2024,01,13,12,33,-5.10
2024,01,13,12,34,-5.10
2024,01,13,12,35,-5.10
2024,01,13,12,36,-5.00
2024,01,13,12,37,-5.00
2024,01,13,12,38,-5.00
2024,01,13,12,39,-4.90
2024,01,13,12,40,-4.90
2024,01,13,12,41,-4.90
2024,01,13,12,42,-4.80
2024,01,13,12,43,-4.80
2024,01,13,12,44,-4.80
2024,01,13,12,45,-4.70
2024,01,13,12,46,-4.70
2024,01,13,12,47,-4.70
2024,01,13,12,48,-4.70
2024,01,13,12,49,-4.70
2024,01,13,12,50,-4.70
2024,01,13,12,51,-4.70
2024,01,13,12,52,-4.70
2024,01,13,12,53,-4.70
2024,01,13,12,54,-4.70
2024,01,13,12,55,-4.70
2024,01,13,12,56,-4.70
2024,01,13,12,57,-4.70
2024,01,13,12,58,-4.70
2024,01,13,12,59,-4.70
2024,01,13,13,00,-4.70
2024,01,13,13,01,-4.70
2024,01,13,13,02,-4.70
2024,01,13,13,03,-4.70
2024,01,13,13,04,-4.70
2024,01,13,13,05,-4.70
2024,01,13,13,06,-4.70
2024,01,13,13,07,-4.70
2024,01,13,13,08,-4.70
2024,01,13,13,09,-4.70
2024,01,13,13,10,-4.70
2024,01,13,13,11,-4.70
2024,01,13,13,12,-4.70
2024,01,13,13,13,-4.70
2024,01,13,13,14,-4.70
2024,01,13,13,15,-4.70
2024,01,13,13,16,-4.60
2024,01,13,13,17,-4.60
2024,01,13,13,18,-4.60
2024,01,13,13,19,-4.60
2024,01,13,13,20,-4.60
2024,01,13,13,21,-4.60
2024,01,13,13,22,-4.60
2024,01,13,13,23,-4.60
2024,01,13,13,24,-4.60
2024,01,13,13,25,-4.60
2024,01,13,13,26,-4.60
2024,01,13,13,27,-4.60
2024,01,13,13,28,-4.60
2024,01,13,13,29,-4.50
2024,01,13,13,30,-4.50
2024,01,13,13,31,-4.50
2024,01,13,13,32,-4.50
2024,01,13,13,33,-4.40
2024,01,13,13,34,-4.40
2024,01,13,13,35,-4.40
2024,01,13,13,36,-4.40
2024,01,13,13,37,-4.40
2024,01,13,13,38,-4.30
2024,01,13,13,39,-4.30
2024,01,13,13,40,-4.20
2024,01,13,13,41,-4.20
2024,01,13,13,42,-4.20
2024,01,13,13,43,-4.20
2024,01,13,13,44,-4.20
2024,01,13,13,45,-4.10
2024,01,13,13,46,-4.10
2024,01,13,13,47,-4.10
2024,01,13,13,48,-4.10
2024,01,13,13,49,-4.00
2024,01,13,13,50,-4.00
2024,01,13,13,51,-4.00
2024,01,13,13,52,-4.00
2024,01,13,13,53,-4.00
2024,01,13,13,54,-4.00
2024,01,13,13,55,-4.00
2024,01,13,13,56,-3.90
2024,01,13,13,57,-3.90
2024,01,13,13,58,-3.90
2024,01,13,13,59,-4.00
2024,01,13,14,00,-4.00
2024,01,13,14,01,-4.00
2024,01,13,14,02,-4.00
2024,01,13,14,03,-4.00
2024,01,13,14,04,-4.00
2024,01,13,14,05,-4.10
2024,01,13,14,06,-4.10
2024,01,13,14,07,-4.10
2024,01,13,14,08,-4.10
2024,01,13,14,09,-4.10
2024,01,13,14,10,-4.10
2024,01,13,14,11,-4.00
2024,01,13,14,12,-4.00
2024,01,13,14,13,-4.00
2024,01,13,14,14,-4.00
2024,01,13,14,15,-4.00
2024,01,13,14,16,-4.00
2024,01,13,14,17,-4.00
2024,01,13,14,18,-4.00
2024,01,13,14,19,-4.00
2024,01,13,14,20,-4.00
2024,01,13,14,21,-4.00
2024,01,13,14,22,-4.00
2024,01,13,14,23,-3.90
2024,01,13,14,24,-3.90
2024,01,13,14,25,-3.90
2024,01,13,14,26,-3.90
2024,01,13,14,27,-3.80
2024,01,13,14,28,-3.80
2024,01,13,14,29,-3.80
2024,01,13,14,30,-3.80
2024,01,13,14,31,-3.90
2024,01,13,14,32,-3.90
2024,01,13,14,33,-3.90
2024,01,13,14,34,-3.90
2024,01,13,14,35,-3.90
2024,01,13,14,36,-3.90
2024,01,13,14,37,-3.90
2024,01,13,14,38,-3.90
2024,01,13,14,39,-3.90
2024,01,13,14,40,-3.90
2024,01,13,14,41,-3.90
2024,01,13,14,42,-3.90
2024,01,13,14,43,-4.00
2024,01,13,14,44,-4.00
2024,01,13,14,45,-4.00
2024,01,13,14,46,-4.00
2024,01,13,14,47,-4.00
2024,01,13,14,48,-4.00
2024,01,13,14,49,-4.00
2024,01,13,14,50,-4.00
2024,01,13,14,51,-4.00
2024,01,13,14,52,-4.00
2024,01,13,14,53,-4.00
2024,01,13,14,54,-4.00
2024,01,13,14,55,-4.00
2024,01,13,14,56,-4.00
2024,01,13,14,57,-4.00
2024,01,13,14,58,-4.00
2024,01,13,14,59,-4.00
2024,01,13,15,00,-4.00
2024,01,13,15,01,-4.00
2024,01,13,15,02,-4.00
2024,01,13,15,03,-4.00
2024,01,13,15,04,-4.00
2024,01,13,15,05,-4.00
2024,01,13,15,06,-3.90
2024,01,13,15,07,-3.90
2024,01,13,15,08,-3.90
2024,01,13,15,09,-3.90
2024,01,13,15,10,-3.90
2024,01,13,15,11,-3.90
2024,01,13,15,12,-3.90
2024,01,13,15,13,-3.90
2024,01,13,15,14,-3.90
2024,01,13,15,15,-3.80
2024,01,13,15,16,-3.80
2024,01,13,15,17,-3.80
2024,01,13,15,18,-3.80
2024,01,13,15,19,-3.80
2024,01,13,15,20,-3.80
2024,01,13,15,21,-3.80
2024,01,13,15,22,-3.80
2024,01,13,15,23,-3.80
2024,01,13,15,24,-3.80
2024,01,13,15,25,-3.80
2024,01,13,15,26,-3.70
2024,01,13,15,27,-3.70
2024,01,13,15,28,-3.70
2024,01,13,15,29,-3.70
2024,01,13,15,30,-3.70
2024,01,13,15,31,-3.70
2024,01,13,15,32,-3.70
2024,01,13,15,33,-3.70
2024,01,13,15,34,-3.70
2024,01,13,15,35,-3.70
2024,01,13,15,36,-3.70
2024,01,13,15,37,-3.70
2024,01,13,15,38,-3.70
2024,01,13,15,39,-3.70
2024,01,13,15,40,-3.70
2024,01,13,15,41,-3.70
2024,01,13,15,42,-3.70
2024,01,13,15,43,-3.70
2024,01,13,15,44,-3.70
2024,01,13,15,45,-3.70
2024,01,13,15,46,-3.70
2024,01,13,15,47,-3.70
2024,01,13,15,48,-3.80
2024,01,13,15,49,-3.80
2024,01,13,15,50,-3.80
2024,01,13,15,51,-3.80
2024,01,13,15,52,-3.80
2024,01,13,15,53,-3.80
2024,01,13,15,54,-3.80
2024,01,13,15,55,-3.90
2024,01,13,15,56,-3.90
2024,01,13,15,57,-3.90
2024,01,13,15,58,-3.90
2024,01,13,15,59,-3.90
2024,01,13,16,00,-3.90
2024,01,13,16,01,-4.00
2024,01,13,16,02,-4.00
2024,01,13,16,03,-4.00
2024,01,13,16,04,-4.00
2024,01,13,16,05,-4.00
2024,01,13,16,06,-4.00
2024,01,13,16,07,-4.00
2024,01,13,16,08,-4.00
2024,01,13,16,09,-4.00
2024,01,13,16,10,-4.00
2024,01,13,16,11,-4.00
2024,01,13,16,12,-4.00
2024,01,13,16,13,-4.00
2024,01,13,16,14,-4.00
2024,01,13,16,15,-4.00
2024,01,13,16,16,-4.00
2024,01,13,16,17,-4.00
2024,01,13,16,18,-4.00
2024,01,13,16,19,-4.00
2024,01,13,16,20,-4.00
2024,01,13,16,21,-3.90
2024,01,13,16,22,-3.90
2024,01,13,16,23,-3.90
2024,01,13,16,24,-3.90
2024,01,13,16,25,-3.80
2024,01,13,16,26,-3.80
2024,01,13,16,27,-3.80
2024,01,13,16,28,-3.80
2024,01,13,16,29,-3.70
2024,01,13,16,30,-3.70
2024,01,13,16,31,-3.70
2024,01,13,16,32,-3.70
2024,01,13,16,33,-3.70
2024,01,13,16,34,-3.70
2024,01,13,16,35,-3.70
2024,01,13,16,36,-3.70
2024,01,13,16,37,-3.70
2024,01,13,16,38,-3.70
2024,01,13,16,39,-3.70
2024,01,13,16,40,-3.70
2024,01,13,16,41,-3.70
2024,01,13,16,42,-3.70
2024,01,13,16,43,-3.70
2024,01,13,16,44,-3.70
2024,01,13,16,45,-3.70
2024,01,13,16,46,-3.70
2024,01,13,16,47,-3.70
2024,01,13,16,48,-3.70
2024,01,13,16,49,-3.70
2024,01,13,16,50,-3.70
2024,01,13,16,51,-3.70
2024,01,13,16,52,-3.70
2024,01,13,16,53,-3.70
2024,01,13,16,54,-3.70
2024,01,13,16,55,-3.70
2024,01,13,16,56,-3.70
2024,01,13,16,57,-3.70
2024,01,13,16,58,-3.70
2024,01,13,16,59,-3.70
2024,01,13,17,00,-3.70
2024,01,13,17,01,-3.70
2024,01,13,17,02,-3.70
2024,01,13,17,03,-3.70
2024,01,13,17,04,-3.70
2024,01,13,17,05,-3.70
2024,01,13,17,06,-3.70
2024,01,13,17,07,-3.70
2024,01,13,17,08,-3.70
2024,01,13,17,09,-3.70
2024,01,13,17,10,-3.70
2024,01,13,17,11,-3.80
2024,01,13,17,12,-3.80
2024,01,13,17,13,-3.80
2024,01,13,17,14,-3.80
2024,01,13,17,15,-3.80
2024,01,13,17,16,-3.90
2024,01,13,17,17,-3.90
2024,01,13,17,18,-3.90
2024,01,13,17,19,-3.90
2024,01,13,17,20,-3.90
2024,01,13,17,21,-4.00
2024,01,13,17,22,-4.00
2024,01,13,17,23,-4.00
2024,01,13,17,24,-4.00
2024,01,13,17,25,-4.00
2024,01,13,17,26,-4.00
2024,01,13,17,27,-4.00
2024,01,13,17,28,-4.00
2024,01,13,17,29,-4.00
2024,01,13,17,30,-4.00
2024,01,13,17,31,-4.00
2024,01,13,17,32,-4.00
2024,01,13,17,33,-4.00
2024,01,13,17,34,-4.00
2024,01,13,17,35,-4.00
2024,01,13,17,36,-4.00
2024,01,13,17,37,-4.00
2024,01,13,17,38,-4.00
2024,01,13,17,39,-4.00
2024,01,13,17,40,-4.00
2024,01,13,17,41,-3.90
2024,01,13,17,42,-3.90
2024,01,13,17,43,-3.90
2024,01,13,17,44,-3.90
2024,01,13,17,45,-3.90
2024,01,13,17,46,-3.90
2024,01,13,17,47,-3.90
2024,01,13,17,48,-3.90
2024,01,13,17,49,-3.90
2024,01,13,17,50,-3.90
2024,01,13,17,51,-3.80
2024,01,13,17,52,-3.80
2024,01,13,17,53,-3.80
2024,01,13,17,54,-3.80
2024,01,13,17,55,-3.80
2024,01,13,17,56,-3.80
2024,01,13,17,57,-3.80
2024,01,13,17,58,-3.80
2024,01,13,17,59,-3.80
2024,01,13,18,00,-3.80
2024,01,13,18,01,-3.80
2024,01,13,18,02,-3.80
2024,01,13,18,03,-3.80
2024,01,13,18,04,-3.80
2024,01,13,18,05,-3.80
2024,01,13,18,06,-3.80
2024,01,13,18,07,-3.70
2024,01,13,18,08,-3.70
2024,01,13,18,09,-3.70
2024,01,13,18,10,-3.70
2024,01,13,18,11,-3.70
2024,01,13,18,12,-3.70
2024,01,13,18,13,-3.70
2024,01,13,18,14,-3.70
2024,01,13,18,15,-3.70
2024,01,13,18,16,-3.70
2024,01,13,18,17,-3.70
2024,01,13,18,18,-3.70
2024,01,13,18,19,-3.70
2024,01,13,18,20,-3.70
2024,01,13,18,21,-3.70
2024,01,13,18,22,-3.70
2024,01,13,18,23,-3.70
2024,01,13,18,24,-3.70
2024,01,13,18,25,-3.70
2024,01,13,18,26,-3.70
2024,01,13,18,27,-3.70
2024,01,13,18,28,-3.70
2024,01,13,18,29,-3.70
2024,01,13,18,30,-3.70
2024,01,13,18,31,-3.70
2024,01,13,18,32,-3.70
2024,01,13,18,33,-3.60
2024,01,13,18,34,-3.60
2024,01,13,18,35,-3.60
2024,01,13,18,36,-3.60
2024,01,13,18,37,-3.60
2024,01,13,18,38,-3.60
2024,01,13,18,39,-3.60
2024,01,13,18,40,-3.60
2024,01,13,18,41,-3.60
2024,01,13,18,42,-3.50
2024,01,13,18,43,-3.50
2024,01,13,18,44,-3.50
2024,01,13,18,45,-3.50
2024,01,13,18,46,-3.50
2024,01,13,18,47,-3.50
2024,01,13,18,48,-3.50
2024,01,13,18,49,-3.50
2024,01,13,18,50,-3.40
2024,01,13,18,51,-3.40
2024,01,13,18,52,-3.40
2024,01,13,18,53,-3.40
2024,01,13,18,54,-3.40
2024,01,13,18,55,-3.40
2024,01,13,18,56,-3.40
2024,01,13,18,57,-3.40
2024,01,13,18,58,-3.30
2024,01,13,18,59,-3.30
2024,01,13,19,00,-3.30
2024,01,13,19,01,-3.30
2024,01,13,19,02,-3.30
2024,01,13,19,03,-3.30
2024,01,13,19,04,-3.30
2024,01,13,19,05,-3.30
2024,01,13,19,06,-3.30
2024,01,13,19,07,-3.30
2024,01,13,19,08,-3.30
2024,01,13,19,09,-3.30
2024,01,13,19,10,-3.30
2024,01,13,19,11,-3.30
2024,01,13,19,12,-3.30
2024,01,13,19,13,-3.30
2024,01,13,19,14,-3.30
2024,01,13,19,15,-3.30
2024,01,13,19,16,-3.30
2024,01,13,19,17,-3.30
2024,01,13,19,18,-3.30
2024,01,13,19,19,-3.30
2024,01,13,19,20,-3.30
2024,01,13,19,21,-3.30
2024,01,13,19,22,-3.30
2024,01,13,19,23,-3.30
2024,01,13,19,24,-3.20
2024,01,13,19,25,-3.20
2024,01,13,19,26,-3.20
2024,01,13,19,27,-3.20
2024,01,13,19,28,-3.20
2024,01,13,19,29,-3.20
2024,01,13,19,30,-3.20
2024,01,13,19,31,-3.20
2024,01,13,19,32,-3.20
2024,01,13,19,33,-3.10
2024,01,13,19,34,-3.10
2024,01,13,19,35,-3.10
2024,01,13,19,36,-3.10
2024,01,13,19,37,-3.10
2024,01,13,19,38,-3.10
2024,01,13,19,39,-3.10
2024,01,13,19,40,-3.10
2024,01,13,19,41,-3.10
2024,01,13,19,42,-3.10
2024,01,13,19,43,-3.10
2024,01,13,19,44,-3.10
2024,01,13,19,45,-3.10
2024,01,13,19,46,-3.10
2024,01,13,19,47,-3.10
2024,01,13,19,48,-3.10
2024,01,13,19,49,-3.10
2024,01,13,19,50,-3.10
2024,01,13,19,51,-3.00
2024,01,13,19,52,-3.00
2024,01,13,19,53,-3.00
2024,01,13,19,54,-3.00
2024,01,13,19,55,-3.00
2024,01,13,19,56,-3.00
2024,01,13,19,57,-3.00
2024,01,13,19,58,-3.00
2024,01,13,19,59,-3.00
2024,01,13,20,00,-3.00
2024,01,13,20,01,-3.00
2024,01,13,20,02,-3.00
2024,01,13,20,03,-3.00
2024,01,13,20,04,-3.00
2024,01,13,20,05,-3.00
2024,01,13,20,06,-3.00
2024,01,13,20,07,-3.10